{"data":{"norad_id":56744,"intl_designator":"2023-072B","name":"SNIPE 4","alt_names":[],"object_type":"PAYLOAD","status":"ACTIVE","operator":null,"country":"SKOR","launch_date":"2023-05-25","launch_site_code":"NSC","launch_vehicle":null,"mission":null,"orbit_class":"UNKNOWN","rcs_meters":null,"size_class":null,"mass_kg":null,"dimensions":null,"purposes":[],"wikipedia_slug":null,"has_3d_model":false,"image_url":null,"decayed_at":null,"tle_current":{"epoch":"2026-05-25T04:11:56.875776Z","epoch_age_seconds":59660,"freshness":"FRESH","line1":"1 56744U 23072B   26145.17496384  .00020543  00000+0  49402-3 0  9995","line2":"2 56744  97.5280 350.4655 0006599  60.0460 300.1440 15.41320536166568","mean_motion":15.41320536,"eccentricity":0.0006599,"inclination_deg":97.528,"raan_deg":350.4655,"arg_perigee_deg":60.046,"mean_anomaly_deg":300.144,"bstar":0.00049402,"rev_number":16656,"period_min":93.426381233916,"perigee_km":437.71020312709,"apogee_km":446.71169835248,"semimajor_km":6820.3479507398,"source":"CELESTRAK","updated_at":"2026-05-25T13:37:59.660339Z"}}}